STARLINK-35539, 65915

Orbit data source: Space-Track

STARLINK-35539, 65915 is a payload satellite owned by SpaceX/Seattle (US) in LEO that was launched on Wed, 08 Oct 2025 UTC via an FALCON 9 launch vehicle from the Air Force Western Test Range (AFWTR). Payload-class satellites include a variety of spacecraft equipped with specific instruments for various scientific and technological missions. These include communications satellites like Starlink; space stations such as the ISS; scientific satellites like the Hubble; Earth observation satellites from companies like Planet Labs, Umbra, and HawkEye 360; GPS; miniature CubeSats for education and research; and military/defense satellites.

Loading next visibility...
Identifier
65915, 2025-225F
Orbit
LEO
Country
Flag of USUS
Related business
Manufacturer
SpaceX/Seattle
Mission
Operational Commercial Communications
Bus & Motor
STARLINK V2MO, Unknown motor
Mass
575 kg wet, ~530 kg dry
Launch date (UTC)
2025-10-08 (8 months ago)
Launch vehicle
FALCON 9
Launch site
Air Force Western Test Range (AFWTR)
Object type
Payload
Rocket body
Debris
Shape & HBR
Box + 2 Pan, 17.7 m
Radar Cross Section
36.964 m², Large (>1 m²)

Expand to show TLE details & history
Last TLE update: 6 hours ago

TLE from 6 hours ago
0 STARLINK-35539
1 65915U 25225F   26151.50002315  .00035893  00000-0  12190-2 0  9996
2 65915  53.1569 141.0684 0001186  79.0284  25.0645 15.30176669  5839
Epoch: 2026-05-31T12:00Z
TLE epoch observation values (Epoch: 2026-05-31T12:00:02.000Z)
Latitude
51.06192°
Longitude
-175.18949°
Altitude
480.611 km
Speed
7.632 km/s
True Right ascension
16h 55m 16s
True Declination
50° 53' 13"
Sunlit
Object was in daylight at epoch
Visualization orbit readout
Latitude
Unknown
Longitude
Unknown
Altitude
Unknown
Speed
Unknown
Apparent Right ascension
Unknown
Apparent Declination
Unknown
Sunlit
N/A
Visualization observer readout
Local Sidereal Time
03:18:26
Azimuth
Unknown
Elevation
Unknown
Doppler factor
Unknown
Orbital elements
Apogee altitude
476.355 km
Perigee altitude
474.729 km
Semi-major axis
6,853.679 km
Eccentricity
0.00012
Inclination
53.1569°
RAAN
141.0684°
Arg. of periapsis
79.0284°
True anomaly
25.07026°
Mean anomaly
25.0645°
Eccentric anomaly
25.06738°
Mean motion
3.82523 °/min
Orbital period
94.11 mins
BSTAR
0.001219
Loading maneuver chart data...
Computing Atmospheric mass density...
Loading historical data...
Loading historical data...
Loading historical data...
Loading historical data...
Loading historical data...
Loading historical data...
Loading historical data...

Documentation

Showing up to 5 results
|